Location: Pedholt
(56.0260°N, 10.2097°E)
Time: 02:21:22
(UTC+00:00)

A-11 Canister half - Pass Details

Date: 30 July 2021
Orbit: 1514 x 1685 km, 47.2° (Epoch: 16 September)

Event Time Altitude Azimuth Distance (km) Brightness Sun altitude
Rises 15:34:41 0° 194° (SSW) 4,786 11.9 30.5°
Reaches altitude 10° 15:38:40 10° 180° (S) 3,834 11.3 30.0°
Maximum altitude 15:45:29 22° 135° (SE) 3,053 10.4 29.0°
Drops below altitude 10° 15:52:25 10° 90° (E) 3,927 10.7 28.1°
Sets 15:56:33 0° 77° (ENE) 4,933 11.1 27.5°
